Eau Claire, WI

7:10 PM CDT on August 25, 2016 (GMT -0500)
Chippewa Valley Regional

Weather History for KEAU - November, 2013

Change the Weather History Date:

Tuesday, November 26, 2013

  Actual Average Record
Temperature  
Mean Temperature 22 °F 27 °F  
Max Temperature 32 °F 35 °F 61 °F (1914)
Min Temperature 12 °F 19 °F -11 °F (1977)
Degree Days  
Heating Degree Days 43 38  
Month to date heating degree days 850 804  
Since 1 July heating degree days 1568 1588  
Cooling Degree Days 0 0  
Month to date cooling degree days 0 0  
Year to date cooling degree days 653 579  
Moisture  
Dew Point 7 °F    
Average Humidity 54    
Maximum Humidity 63    
Minimum Humidity 45    
Precipitation  
Precipitation T in 0.05 in 1.80 in (1896)
Month to date precipitation 1.32 1.62  
Year to date precipitation 34.37 29.76  
Snow  
Snow 0.10 in 0.30 in 8.20 in (1970)
Month to date snowfall 2.2 4.8  
Since 1 July snowfall 2.2 5.2  
Since 1 September snowfall 2.2 5.2  
Snow Depth T in    
Sea Level Pressure  
Sea Level Pressure 30.19 in    
Wind  
Wind Speed 12 mph (NW)    
Max Wind Speed 23 mph    
Max Gust Speed 33 mph    
Visibility 10 miles    
Events Snow    
T = Trace of Precipitation, MM = Missing Value Source: NWS Daily Summary

Daily Weather History Graph

Daily Weather History Graph

Search for Another Location

Airport or City:

Trip Planner

Search our weather history database for the weather conditions in past years. The results will help you decide how hot, cold, wet, or windy it might be!

Date:

Astronomy

Nov. 26, 2013 Rise Set
Actual Time 7:17 AM CST 4:28 PM CST
Civil Twilight 6:45 AM CST 5:01 PM CST
Nautical Twilight 6:08 AM CST 5:37 PM CST
Astronomical Twilight 5:33 AM CST 6:12 PM CST
Moon 12:05 AM CST 12:50 PM CST
Length of Visible Light 10h 15m
Length of Day
9h 10m
Last Quarter, 41% of the Moon is Illuminated
Nov 26
Last Quarter
Dec 2
New
Dec 9
First Quarter
Dec 17
Full
Dec 25
Last Quarter

Hourly Weather History & Observations

Time (CST) Temp. Windchill Dew Point Humidity Pressure Visibility Wind Dir Wind Speed Gust Speed Precip Events Conditions
12:56 AM 30.9 °F 22.2 °F 18.0 °F 59% 30.04 in 10.0 mi NW 10.4 mph - N/A   Overcast
1:56 AM 30.0 °F 22.4 °F 16.0 °F 56% 30.06 in 10.0 mi NW 8.1 mph - N/A   Overcast
2:56 AM 28.9 °F 18.2 °F 16.0 °F 58% 30.07 in 10.0 mi NW 13.8 mph 20.7 mph N/A   Overcast
3:56 AM 28.0 °F 20.0 °F 15.1 °F 58% 30.07 in 10.0 mi NW 8.1 mph - N/A   Overcast
4:56 AM 27.0 °F 20.5 °F 14.0 °F 58% 30.08 in 10.0 mi WNW 5.8 mph - N/A   Overcast
5:56 AM 27.0 °F 17.3 °F 15.1 °F 61% 30.07 in 9.0 mi WNW 10.4 mph - 0.00 in   Overcast
6:35 AM 26.6 °F 16.8 °F 17.6 °F 69% 30.04 in 4.0 mi West 10.4 mph - 0.00 in Snow Light Snow
6:56 AM 25.0 °F 11.7 °F 18.0 °F 75% 30.09 in 6.0 mi WNW 17.3 mph 23.0 mph 0.00 in Snow Light Snow
7:13 AM 24.8 °F 11.9 °F 15.8 °F 69% 30.05 in 9.0 mi NW 16.1 mph 19.6 mph 0.00 in   Overcast
7:56 AM 24.1 °F 10.6 °F 12.0 °F 60% 30.11 in 10.0 mi WNW 17.3 mph 23.0 mph 0.00 in   Overcast
8:56 AM 21.0 °F 7.1 °F 10.9 °F 65% 30.15 in 9.0 mi NNW 16.1 mph 26.5 mph 0.00 in Snow Light Snow
9:23 AM 19.4 °F 2.5 °F 3.2 °F 49% 30.13 in 10.0 mi NW 23.0 mph 33.4 mph 0.00 in   Overcast
9:56 AM 19.0 °F 3.2 °F 3.0 °F 50% 30.19 in 10.0 mi NNW 19.6 mph 31.1 mph 0.00 in   Clear
10:56 AM 19.9 °F 5.2 °F 1.9 °F 46% 30.20 in 10.0 mi NNW 17.3 mph 24.2 mph N/A   Partly Cloudy
11:56 AM 19.0 °F 4.0 °F 3.0 °F 50% 30.21 in 10.0 mi NW 17.3 mph 26.5 mph 0.00 in   Mostly Cloudy
12:56 PM 19.9 °F 6.2 °F 1.9 °F 46% 30.20 in 10.0 mi NNW 15.0 mph 24.2 mph 0.00 in   Overcast
1:56 PM 19.0 °F 4.0 °F 3.0 °F 50% 30.21 in 10.0 mi NNW 17.3 mph 25.3 mph N/A   Overcast
2:56 PM 19.0 °F 6.8 °F 1.9 °F 47% 30.23 in 10.0 mi North 11.5 mph 20.7 mph N/A   Mostly Cloudy
3:56 PM 19.0 °F 5.6 °F 1.0 °F 46% 30.25 in 10.0 mi NNW 13.8 mph 20.7 mph N/A   Scattered Clouds
4:56 PM 17.1 °F 5.0 °F 1.0 °F 50% 30.29 in 10.0 mi NW 10.4 mph - N/A   Mostly Cloudy
5:56 PM 16.0 °F 4.4 °F 1.0 °F 52% 30.30 in 10.0 mi NNW 9.2 mph - N/A   Partly Cloudy
6:56 PM 15.1 °F 4.2 °F 1.0 °F 54% 30.32 in 10.0 mi NNW 8.1 mph - N/A   Clear
7:56 PM 14.0 °F 2.9 °F 1.9 °F 59% 30.33 in 10.0 mi NNW 8.1 mph - N/A   Clear
8:56 PM 12.9 °F 5.2 °F 1.9 °F 62% 30.35 in 10.0 mi NNW 4.6 mph - N/A   Clear
9:56 PM 12.9 °F 1.6 °F 1.9 °F 62% 30.35 in 10.0 mi NNW 8.1 mph - N/A   Clear
10:56 PM 12.9 °F 1.6 °F 1.9 °F 62% 30.35 in 10.0 mi NNW 8.1 mph - N/A   Clear
11:56 PM 12.0 °F 1.5 °F 1.9 °F 64% 30.36 in 10.0 mi NNW 6.9 mph - N/A   Clear